Weather in Lashch-Tayaba

Russia / Chuvash Republic     55°01′44″N   47°59′51″E
temp.,
°C
wind,
m/s
gust,
m/s
humid.,
%
clouds,
%
prec.,
mm/h
press.,
hPa
HPBL,
m
14 may, fri
fri1400:00+16sse41378100 0.6 1020269
03:00+14se378431 1.0 1021123
06:00+16se3875100 0.1 1020209
09:00+21sse5653100 0.1 1020465
12:00+24sse5745100 0.0 1020984
15:00+26ssw57440 0.0 10191588
18:00+24s36573 0.0 1018153
21:00+20s477082 0.0 1019116
15 may, sat
sat1500:00+18s347095 0.0 101953
03:00+17sse486595 0.0 1018132
06:00+18sse5116397 0.0 1018246
09:00+25s6114288 0.0 1018578
12:00+28s7103091 0.0 10181331
15:00+29s793396 0.0 10171433
18:00+25s511465 0.0 1017311
21:00+20sse4135613 0.0 1017217
16 may, sun
sun1600:00+18s414530 0.0 1016262
03:00+17s4125560 0.0 1016209
06:00+18s4125894 0.0 1017276
09:00+24ssw594267 0.0 1016501
12:00+28ssw6103297 0.0 10161498
15:00+29ssw68295 0.0 10152691
18:00+26sw48485 0.0 1015223
21:00+20ssw46596 0.0 101681
17 may, mon
mon1700:00+19sw336222 0.0 101625
03:00+17wsw116778 0.0 101711
06:00+19ese006254 0.0 101759
09:00+24sse234430 0.0 1017403
12:00+29sw473370 0.0 10171506
15:00+30sw57305 0.0 10162769
18:00+26sse24465 0.0 1016132
21:00+20se22585 0.0 101725
18 may, tue
tue1800:00+18sse335989 0.0 101737
03:00+18se2259100 0.0 101716
06:00+19s2459100 0.0 1016109
09:00+25s3541100 0.0 1016366
12:00+28sse452998 0.0 10161215
15:00+29sse553084 0.0 10151941
18:00+26sse35505 0.0 1015126
21:00+21sse33515 0.0 101525